BCS472 EGNX-LEVT

Flight info

Callsign BCS472
Flight time 1h 58m
Altitude 30000
Route SAPCO UY53 DTY UM605 SILVA Q41 SAM/N0416F310 M195 MARUK/N0403F290 N621 LELNA/N0415F310 DCT DOMOK UT260 UPALO UN862 TERPO UN872 ERIGA UZ218 FUJTI DCT PEXOD DCT NENEM N867 BLV M601 CEGAM
Aircraft B738/M-SDFGHIJ1RWY/LB1

Departure

Time 2026-05-07 21:18
Airport East Midlands Airport (EGNX)

Arrival

Time 2026-05-07 23:17
Airport Vitoria Airport (LEVT)
Time Latitude Longitude Altitude Speed Heading
2026-05-07 20:12 52.82591 -1.34572 299 ft 0 kts 268°
2026-05-07 21:09 52.82591 -1.34568 299 ft 3 kts 267°
2026-05-07 21:09 52.82600 -1.34533 302 ft 3 kts 235°
2026-05-07 21:09 52.82610 -1.34505 300 ft 4 kts 264°
2026-05-07 21:10 52.82610 -1.34486 299 ft 4 kts 324°
2026-05-07 21:10 52.82588 -1.34479 299 ft 4 kts 358°
2026-05-07 21:10 52.82574 -1.34478 300 ft 0 kts 358°
2026-05-07 21:13 52.82576 -1.34478 300 ft 1 kts 358°
2026-05-07 21:13 52.82598 -1.34480 299 ft 5 kts 358°
2026-05-07 21:13 52.82641 -1.34482 303 ft 7 kts 358°
2026-05-07 21:13 52.82700 -1.34484 300 ft 10 kts 358°
2026-05-07 21:14 52.82774 -1.34488 303 ft 11 kts 358°
2026-05-07 21:14 52.82823 -1.34472 301 ft 6 kts 37°
2026-05-07 21:14 52.82852 -1.34428 302 ft 6 kts 31°
2026-05-07 21:14 52.82890 -1.34427 304 ft 6 kts 331°
2026-05-07 21:15 52.82906 -1.34491 306 ft 8 kts 271°
2026-05-07 21:15 52.82904 -1.34590 304 ft 9 kts 268°
2026-05-07 21:15 52.82902 -1.34695 303 ft 9 kts 268°
2026-05-07 21:15 52.82900 -1.34796 305 ft 9 kts 268°
2026-05-07 21:16 52.82904 -1.34894 306 ft 9 kts 294°
2026-05-07 21:16 52.82952 -1.34936 305 ft 8 kts 358°
2026-05-07 21:16 52.83010 -1.34939 304 ft 8 kts 358°
2026-05-07 21:16 52.83058 -1.34897 304 ft 8 kts 58°
2026-05-07 21:17 52.83063 -1.34846 302 ft 0 kts 88°
2026-05-07 21:17 52.83063 -1.34845 302 ft 0 kts 88°
2026-05-07 21:17 52.83065 -1.34785 303 ft 22 kts 88°
2026-05-07 21:17 52.83076 -1.34130 302 ft 91 kts 88°
2026-05-07 21:18 52.83102 -1.32743 301 ft 148 kts 88°
2026-05-07 21:18 52.83140 -1.30920 722 ft 161 kts 89°
2026-05-07 21:18 52.83085 -1.29079 1434 ft 163 kts 98°
2026-05-07 21:18 52.82960 -1.27135 1967 ft 178 kts 96°
2026-05-07 21:19 52.82806 -1.24968 2295 ft 202 kts 103°
2026-05-07 21:19 52.82271 -1.22787 2738 ft 209 kts 124°
2026-05-07 21:19 52.81337 -1.20886 3298 ft 212 kts 135°
2026-05-07 21:19 52.80310 -1.19106 3982 ft 215 kts 136°
2026-05-07 21:20 52.79252 -1.17307 4466 ft 233 kts 136°
2026-05-07 21:20 52.78018 -1.15377 4789 ft 253 kts 148°
2026-05-07 21:20 52.76339 -1.14562 5431 ft 258 kts 184°
2026-05-07 21:20 52.74672 -1.15580 6187 ft 262 kts 216°
2026-05-07 21:21 52.73281 -1.17551 6945 ft 266 kts 220°
2026-05-07 21:21 52.71864 -1.19552 7680 ft 270 kts 219°
2026-05-07 21:21 52.70403 -1.21528 8424 ft 273 kts 218°
2026-05-07 21:21 52.68910 -1.23501 9098 ft 277 kts 218°
2026-05-07 21:22 52.67391 -1.25496 9769 ft 280 kts 218°
2026-05-07 21:22 52.65854 -1.27500 10442 ft 285 kts 218°
2026-05-07 21:22 52.64235 -1.29604 10638 ft 308 kts 218°
2026-05-07 21:22 52.62494 -1.31861 10876 ft 327 kts 218°
2026-05-07 21:23 52.60683 -1.34208 11423 ft 335 kts 218°
2026-05-07 21:23 52.58695 -1.36165 12140 ft 335 kts 198°
2026-05-07 21:23 52.56394 -1.36662 12957 ft 336 kts 178°
2026-05-07 21:23 52.54085 -1.35892 13578 ft 345 kts 161°
2026-05-07 21:24 52.51837 -1.34420 14230 ft 350 kts 159°
2026-05-07 21:24 52.49611 -1.32871 14868 ft 354 kts 158°
2026-05-07 21:24 52.47332 -1.31271 15543 ft 358 kts 159°
2026-05-07 21:24 52.45025 -1.29665 16237 ft 362 kts 159°
2026-05-07 21:25 52.42698 -1.28060 16898 ft 365 kts 159°
2026-05-07 21:25 52.40337 -1.26445 17517 ft 369 kts 159°
2026-05-07 21:25 52.37950 -1.24824 18125 ft 373 kts 159°
2026-05-07 21:25 52.35535 -1.23191 18732 ft 377 kts 159°
2026-05-07 21:26 52.33103 -1.21550 19335 ft 380 kts 159°
2026-05-07 21:26 52.30649 -1.19896 19925 ft 383 kts 159°
2026-05-07 21:26 52.28174 -1.18230 20497 ft 386 kts 159°
2026-05-07 21:26 52.25678 -1.16551 21067 ft 389 kts 159°
2026-05-07 21:27 52.23161 -1.14861 21624 ft 392 kts 159°
2026-05-07 21:27 52.20629 -1.13162 22124 ft 395 kts 160°
2026-05-07 21:27 52.18066 -1.11500 22610 ft 398 kts 163°
2026-05-07 21:27 52.15387 -1.10363 23092 ft 399 kts 171°
2026-05-07 21:28 52.12652 -1.09520 23572 ft 401 kts 171°
2026-05-07 21:28 52.09896 -1.08693 24035 ft 404 kts 171°
2026-05-07 21:28 52.07127 -1.07838 24487 ft 407 kts 171°
2026-05-07 21:28 52.04334 -1.06946 24923 ft 410 kts 171°
2026-05-07 21:29 52.01533 -1.06036 25389 ft 411 kts 171°
2026-05-07 21:29 51.98736 -1.05122 25962 ft 409 kts 171°
2026-05-07 21:29 51.95960 -1.04200 26560 ft 406 kts 171°
2026-05-07 21:29 51.93190 -1.03278 27079 ft 406 kts 171°
2026-05-07 21:30 51.90420 -1.02359 27584 ft 406 kts 171°
2026-05-07 21:30 51.87662 -1.01447 28095 ft 404 kts 171°
2026-05-07 21:30 51.84878 -1.00883 28597 ft 400 kts 180°
2026-05-07 21:30 51.82114 -1.01066 29052 ft 397 kts 190°
2026-05-07 21:31 51.79393 -1.01774 29504 ft 396 kts 192°
2026-05-07 21:31 51.76721 -1.02517 29965 ft 395 kts 192°
2026-05-07 21:31 51.71275 -1.03998 30068 ft 395 kts 191°
2026-05-07 21:32 51.65852 -1.05407 30079 ft 395 kts 191°
2026-05-07 21:32 51.60428 -1.06890 30074 ft 394 kts 195°
2026-05-07 21:33 51.55157 -1.09171 30079 ft 394 kts 198°
2026-05-07 21:33 51.49852 -1.11518 30076 ft 394 kts 197°
2026-05-07 21:34 51.44550 -1.13785 30073 ft 394 kts 197°
2026-05-07 21:34 51.39294 -1.16052 30075 ft 393 kts 197°
2026-05-07 21:35 51.34005 -1.18323 30078 ft 393 kts 197°
2026-05-07 21:35 51.28717 -1.20572 30073 ft 392 kts 197°
2026-05-07 21:36 51.23439 -1.22813 30076 ft 392 kts 197°
2026-05-07 21:36 51.18163 -1.25046 30075 ft 392 kts 197°
2026-05-07 21:37 51.12912 -1.27245 30072 ft 392 kts 197°
2026-05-07 21:37 51.07629 -1.29449 30076 ft 392 kts 196°
2026-05-07 21:38 51.02352 -1.31650 30074 ft 392 kts 196°
2026-05-07 21:38 50.97080 -1.33879 30069 ft 392 kts 200°
2026-05-07 21:39 50.92279 -1.37708 30082 ft 388 kts 214°
2026-05-07 21:39 50.87781 -1.42474 30069 ft 388 kts 214°
2026-05-07 21:40 50.83287 -1.47211 30074 ft 388 kts 214°
2026-05-07 21:40 50.78786 -1.51909 30073 ft 388 kts 214°
2026-05-07 21:41 50.74274 -1.56587 30074 ft 388 kts 214°
2026-05-07 21:41 50.69779 -1.61232 30075 ft 388 kts 214°
2026-05-07 21:42 50.65263 -1.65893 30072 ft 388 kts 214°
2026-05-07 21:42 50.60752 -1.70539 30074 ft 387 kts 214°
2026-05-07 21:43 50.56235 -1.75179 30073 ft 387 kts 213°
2026-05-07 21:43 50.51720 -1.79802 30075 ft 387 kts 213°
2026-05-07 21:44 50.47225 -1.84366 30074 ft 388 kts 213°
2026-05-07 21:44 50.42684 -1.88966 30068 ft 388 kts 213°
2026-05-07 21:45 50.38139 -1.93561 30065 ft 388 kts 213°
2026-05-07 21:45 50.33599 -1.98146 30063 ft 388 kts 213°
2026-05-07 21:46 50.29089 -2.02688 30062 ft 388 kts 213°
2026-05-07 21:46 50.24319 -2.06575 30061 ft 389 kts 199°
2026-05-07 21:47 50.18993 -2.08067 30064 ft 390 kts 186°
2026-05-07 21:47 50.13570 -2.08708 30057 ft 391 kts 186°
2026-05-07 21:48 50.08151 -2.09384 30049 ft 391 kts 186°
2026-05-07 21:48 50.02732 -2.10099 30045 ft 391 kts 186°
2026-05-07 21:49 49.97343 -2.10749 30043 ft 391 kts 183°
2026-05-07 21:49 49.91884 -2.10727 30048 ft 391 kts 181°
2026-05-07 21:50 49.86435 -2.10623 30045 ft 391 kts 181°
2026-05-07 21:50 49.80989 -2.10565 30046 ft 391 kts 181°
2026-05-07 21:51 49.75565 -2.10524 30045 ft 391 kts 181°
2026-05-07 21:51 49.70122 -2.09636 30094 ft 403 kts 167°
2026-05-07 21:52 49.67412 -2.08438 30426 ft 405 kts 166°
2026-05-07 21:52 49.64717 -2.07215 30917 ft 402 kts 166°
2026-05-07 21:52 49.59318 -2.04780 31035 ft 405 kts 166°
2026-05-07 21:53 49.53948 -2.02397 31031 ft 398 kts 166°
2026-05-07 21:53 49.48597 -2.00053 31046 ft 400 kts 166°
2026-05-07 21:54 49.43221 -1.97710 31035 ft 402 kts 166°
2026-05-07 21:54 49.37865 -1.95379 31032 ft 403 kts 166°
2026-05-07 21:55 49.32462 -1.93034 31025 ft 403 kts 166°
2026-05-07 21:55 49.27064 -1.90695 31027 ft 402 kts 166°
2026-05-07 21:56 49.21691 -1.88370 31025 ft 401 kts 166°
2026-05-07 21:56 49.16329 -1.86057 31029 ft 399 kts 166°
2026-05-07 21:57 49.10990 -1.83759 31028 ft 398 kts 166°
2026-05-07 21:57 49.06553 -1.81855 31026 ft 398 kts 166°
2026-05-07 21:58 49.00352 -1.79196 31029 ft 398 kts 166°
2026-05-07 21:58 48.95915 -1.77299 31037 ft 398 kts 166°
2026-05-07 21:59 48.90540 -1.75249 31032 ft 397 kts 174°
2026-05-07 21:59 48.85038 -1.75021 31035 ft 395 kts 181°
2026-05-07 22:00 48.79536 -1.75019 31038 ft 395 kts 181°
2026-05-07 22:00 48.74023 -1.74986 31035 ft 396 kts 181°
2026-05-07 22:01 48.68538 -1.74930 31047 ft 396 kts 181°
2026-05-07 22:01 48.63019 -1.74867 31046 ft 397 kts 181°
2026-05-07 22:02 48.57497 -1.74800 31046 ft 396 kts 181°
2026-05-07 22:02 48.51975 -1.74735 31048 ft 396 kts 181°
2026-05-07 22:03 48.46492 -1.74667 31044 ft 396 kts 181°
2026-05-07 22:03 48.40977 -1.74601 31036 ft 396 kts 181°
2026-05-07 22:04 48.35472 -1.74537 31035 ft 395 kts 181°
2026-05-07 22:04 48.29969 -1.74472 31034 ft 395 kts 181°
2026-05-07 22:05 48.24463 -1.74407 31028 ft 395 kts 181°
2026-05-07 22:05 48.18984 -1.74342 31027 ft 395 kts 181°
2026-05-07 22:06 48.13482 -1.74277 31021 ft 395 kts 181°
2026-05-07 22:06 48.07970 -1.74316 31011 ft 394 kts 187°
2026-05-07 22:07 48.02682 -1.76237 31027 ft 391 kts 200°
2026-05-07 22:07 47.97544 -1.78946 31018 ft 392 kts 200°
2026-05-07 22:08 47.92419 -1.81620 31019 ft 392 kts 200°
2026-05-07 22:08 47.87249 -1.84276 31022 ft 393 kts 199°
2026-05-07 22:09 47.82074 -1.86919 31015 ft 393 kts 199°
2026-05-07 22:09 47.76888 -1.89559 31021 ft 393 kts 199°
2026-05-07 22:10 47.71743 -1.92176 31014 ft 393 kts 199°
2026-05-07 22:10 47.66552 -1.94785 31000 ft 394 kts 197°
2026-05-07 22:11 47.61130 -1.95784 30996 ft 395 kts 178°
2026-05-07 22:11 47.55646 -1.95169 30997 ft 395 kts 177°
2026-05-07 22:12 47.50157 -1.94521 31000 ft 395 kts 177°
2026-05-07 22:12 47.44671 -1.93928 31001 ft 395 kts 178°
2026-05-07 22:13 47.39206 -1.93354 31002 ft 395 kts 178°
2026-05-07 22:13 47.36452 -1.93429 30992 ft 393 kts 190°
2026-05-07 22:13 47.33793 -1.94358 31002 ft 392 kts 200°
2026-05-07 22:14 47.28976 -1.98036 31001 ft 391 kts 212°
2026-05-07 22:14 47.24348 -2.02261 30984 ft 392 kts 212°
2026-05-07 22:15 47.19709 -2.06459 30988 ft 391 kts 212°
2026-05-07 22:15 47.15050 -2.10623 30989 ft 392 kts 212°
2026-05-07 22:16 47.10412 -2.14746 30993 ft 392 kts 212°
2026-05-07 22:16 47.05735 -2.18893 30988 ft 392 kts 212°
2026-05-07 22:17 47.01055 -2.23033 30992 ft 393 kts 212°
2026-05-07 22:17 46.96374 -2.27168 30990 ft 392 kts 212°
2026-05-07 22:18 46.89400 -2.33310 30990 ft 391 kts 212°
2026-05-07 22:19 46.84736 -2.37406 30991 ft 391 kts 212°
2026-05-07 22:19 46.80073 -2.41499 30990 ft 390 kts 212°
2026-05-07 22:20 46.75408 -2.45589 30993 ft 390 kts 212°
2026-05-07 22:20 46.70779 -2.49641 30990 ft 391 kts 212°
2026-05-07 22:21 46.66117 -2.53711 30992 ft 391 kts 212°
2026-05-07 22:21 46.61429 -2.57797 30993 ft 393 kts 212°
2026-05-07 22:22 46.56732 -2.61882 30990 ft 393 kts 212°
2026-05-07 22:22 46.52041 -2.65955 30986 ft 393 kts 212°
2026-05-07 22:23 46.47349 -2.70019 30989 ft 393 kts 212°
2026-05-07 22:23 46.42686 -2.74050 30992 ft 393 kts 212°
2026-05-07 22:24 46.37985 -2.78108 30999 ft 393 kts 212°
2026-05-07 22:24 46.33284 -2.82157 31001 ft 393 kts 212°
2026-05-07 22:25 46.28563 -2.86154 30995 ft 394 kts 207°
2026-05-07 22:25 46.23318 -2.88492 30996 ft 399 kts 189°
2026-05-07 22:26 46.17790 -2.89306 30994 ft 400 kts 187°
2026-05-07 22:26 46.12288 -2.90051 31001 ft 399 kts 188°
2026-05-07 22:27 46.06751 -2.90830 30991 ft 400 kts 188°
2026-05-07 22:27 46.01215 -2.91637 30980 ft 400 kts 188°
2026-05-07 22:28 45.95678 -2.92449 30976 ft 400 kts 188°
2026-05-07 22:28 45.90132 -2.93260 30984 ft 401 kts 188°
2026-05-07 22:29 45.84575 -2.94072 30976 ft 402 kts 188°
2026-05-07 22:29 45.79038 -2.94879 30972 ft 403 kts 188°
2026-05-07 22:30 45.73456 -2.95692 30972 ft 403 kts 188°
2026-05-07 22:30 45.67868 -2.96502 30971 ft 402 kts 188°
2026-05-07 22:31 45.62326 -2.97305 30972 ft 403 kts 188°
2026-05-07 22:31 45.56752 -2.98111 30965 ft 403 kts 188°
2026-05-07 22:32 45.51168 -2.98917 30965 ft 403 kts 188°
2026-05-07 22:32 45.45596 -2.99719 30972 ft 403 kts 188°
2026-05-07 22:33 45.40020 -3.00521 30964 ft 402 kts 188°
2026-05-07 22:33 45.34447 -3.01319 30964 ft 402 kts 188°
2026-05-07 22:34 45.28862 -3.02068 30966 ft 403 kts 187°
2026-05-07 22:34 45.23287 -3.02655 30963 ft 404 kts 187°
2026-05-07 22:35 45.17674 -3.03228 30962 ft 404 kts 187°
2026-05-07 22:35 45.12058 -3.03812 30964 ft 404 kts 187°
2026-05-07 22:36 45.06447 -3.04407 30961 ft 404 kts 187°
2026-05-07 22:36 45.00838 -3.05003 30959 ft 404 kts 187°
2026-05-07 22:37 44.95221 -3.05598 30954 ft 405 kts 187°
2026-05-07 22:37 44.89610 -3.06192 30952 ft 405 kts 187°
2026-05-07 22:38 44.83989 -3.06787 30954 ft 405 kts 187°
2026-05-07 22:38 44.78407 -3.07377 30953 ft 405 kts 187°
2026-05-07 22:39 44.72788 -3.07967 30943 ft 405 kts 187°
2026-05-07 22:39 44.67160 -3.08559 30947 ft 405 kts 187°
2026-05-07 22:40 44.61533 -3.09148 30942 ft 406 kts 187°
2026-05-07 22:40 44.55895 -3.09736 30947 ft 407 kts 187°
2026-05-07 22:41 44.50249 -3.10326 30935 ft 407 kts 187°
2026-05-07 22:41 44.44602 -3.10915 30934 ft 407 kts 187°
2026-05-07 22:42 44.38949 -3.11503 30935 ft 407 kts 187°
2026-05-07 22:42 44.33309 -3.12087 30937 ft 407 kts 188°
2026-05-07 22:43 44.27648 -3.12674 30934 ft 407 kts 188°
2026-05-07 22:43 44.21993 -3.13261 30936 ft 408 kts 188°
2026-05-07 22:44 44.16361 -3.13841 30937 ft 408 kts 188°
2026-05-07 22:44 44.10688 -3.14425 30927 ft 409 kts 188°
2026-05-07 22:45 44.05001 -3.14836 30918 ft 412 kts 180°
2026-05-07 22:45 43.99321 -3.13463 30928 ft 416 kts 171°
2026-05-07 22:46 43.93652 -3.11728 30922 ft 418 kts 172°
2026-05-07 22:46 43.87955 -3.10037 30930 ft 419 kts 172°
2026-05-07 22:47 43.83192 -3.08654 30931 ft 422 kts 172°
2026-05-07 22:47 43.77449 -3.06957 30939 ft 421 kts 172°
2026-05-07 22:48 43.71690 -3.05375 30927 ft 421 kts 173°
2026-05-07 22:48 43.65968 -3.03684 30930 ft 420 kts 171°
2026-05-07 22:49 43.60284 -3.01875 30881 ft 416 kts 171°
2026-05-07 22:49 43.57480 -3.00978 30607 ft 410 kts 171°
2026-05-07 22:49 43.54716 -3.00099 30354 ft 404 kts 171°
2026-05-07 22:49 43.51997 -2.99241 30103 ft 399 kts 171°
2026-05-07 22:50 43.49325 -2.98404 29857 ft 396 kts 172°
2026-05-07 22:50 43.46676 -2.97577 29611 ft 394 kts 172°
2026-05-07 22:50 43.44006 -2.96743 29365 ft 392 kts 171°
2026-05-07 22:50 43.41352 -2.95914 29116 ft 390 kts 171°
2026-05-07 22:51 43.38711 -2.95089 28868 ft 388 kts 171°
2026-05-07 22:51 43.36090 -2.94272 28611 ft 385 kts 171°
2026-05-07 22:51 43.33496 -2.93452 28294 ft 381 kts 169°
2026-05-07 22:51 43.31047 -2.92011 27898 ft 387 kts 149°
2026-05-07 22:52 43.29020 -2.89582 27561 ft 390 kts 132°
2026-05-07 22:52 43.27497 -2.86510 27213 ft 389 kts 125°
2026-05-07 22:52 43.26078 -2.83365 26834 ft 386 kts 124°
2026-05-07 22:52 43.24677 -2.80236 26474 ft 383 kts 124°
2026-05-07 22:53 43.23282 -2.77137 26115 ft 381 kts 125°
2026-05-07 22:53 43.21882 -2.74057 25735 ft 378 kts 126°
2026-05-07 22:53 43.20490 -2.71019 25372 ft 375 kts 126°
2026-05-07 22:53 43.19103 -2.68008 25021 ft 372 kts 126°
2026-05-07 22:54 43.17726 -2.65028 24662 ft 369 kts 126°
2026-05-07 22:54 43.16358 -2.62077 24304 ft 366 kts 126°
2026-05-07 22:54 43.15002 -2.59153 23955 ft 362 kts 126°
2026-05-07 22:54 43.13655 -2.56255 23610 ft 359 kts 126°
2026-05-07 22:55 43.12335 -2.53416 23265 ft 356 kts 126°
2026-05-07 22:55 43.11010 -2.50567 22918 ft 354 kts 126°
2026-05-07 22:55 43.09695 -2.47741 22568 ft 351 kts 126°
2026-05-07 22:55 43.08386 -2.44935 22218 ft 348 kts 126°
2026-05-07 22:56 43.07082 -2.42142 21888 ft 346 kts 126°
2026-05-07 22:56 43.05793 -2.39382 21550 ft 343 kts 126°
2026-05-07 22:56 43.04513 -2.36641 21224 ft 341 kts 126°
2026-05-07 22:56 43.03239 -2.33920 20887 ft 339 kts 126°
2026-05-07 22:57 43.01952 -2.31234 20543 ft 335 kts 131°
2026-05-07 22:57 43.00240 -2.29188 20228 ft 323 kts 155°
2026-05-07 22:57 42.98142 -2.28263 19915 ft 315 kts 176°
2026-05-07 22:57 42.96014 -2.28421 19586 ft 313 kts 194°
2026-05-07 22:58 42.94011 -2.29464 19251 ft 314 kts 212°
2026-05-07 22:58 42.92305 -2.31315 18926 ft 313 kts 222°
2026-05-07 22:58 42.90723 -2.33352 18561 ft 312 kts 223°
2026-05-07 22:58 42.89161 -2.35408 18209 ft 311 kts 223°
2026-05-07 22:59 42.87606 -2.37445 17864 ft 310 kts 223°
2026-05-07 22:59 42.86049 -2.39462 17526 ft 308 kts 223°
2026-05-07 22:59 42.84493 -2.41462 17185 ft 306 kts 223°
2026-05-07 22:59 42.82947 -2.43440 16848 ft 304 kts 223°
2026-05-07 23:00 42.81403 -2.45407 16513 ft 303 kts 222°
2026-05-07 23:00 42.79832 -2.47309 16178 ft 301 kts 220°
2026-05-07 23:00 42.78251 -2.49175 15846 ft 300 kts 220°
2026-05-07 23:00 42.76677 -2.51031 15513 ft 299 kts 220°
2026-05-07 23:01 42.75111 -2.52883 15185 ft 298 kts 220°
2026-05-07 23:01 42.73553 -2.54732 14854 ft 296 kts 220°
2026-05-07 23:01 42.72004 -2.56571 14540 ft 296 kts 220°
2026-05-07 23:01 42.70450 -2.58416 14220 ft 297 kts 221°
2026-05-07 23:02 42.69128 -2.60561 13864 ft 300 kts 243°
2026-05-07 23:02 42.68615 -2.63283 13601 ft 299 kts 266°
2026-05-07 23:02 42.68872 -2.66043 13357 ft 300 kts 284°
2026-05-07 23:02 42.69451 -2.68769 13116 ft 301 kts 285°
2026-05-07 23:03 42.70042 -2.71484 12898 ft 297 kts 285°
2026-05-07 23:03 42.70616 -2.74170 12612 ft 295 kts 285°
2026-05-07 23:03 42.71180 -2.76857 12299 ft 297 kts 284°
2026-05-07 23:03 42.71868 -2.79522 11957 ft 300 kts 299°
2026-05-07 23:04 42.73275 -2.81585 11639 ft 300 kts 327°
2026-05-07 23:04 42.75201 -2.82591 11298 ft 299 kts 353°
2026-05-07 23:04 42.77258 -2.82366 10951 ft 298 kts 18°
2026-05-07 23:04 42.79090 -2.81106 10641 ft 295 kts 35°
2026-05-07 23:05 42.80743 -2.79520 10375 ft 292 kts 37°
2026-05-07 23:05 42.82365 -2.77923 10234 ft 284 kts 37°
2026-05-07 23:05 42.83975 -2.76357 10088 ft 276 kts 36°
2026-05-07 23:05 42.85505 -2.74887 9965 ft 269 kts 36°
2026-05-07 23:06 42.87017 -2.73442 9847 ft 262 kts 36°
2026-05-07 23:06 42.88492 -2.72034 9667 ft 257 kts 37°
2026-05-07 23:06 42.89953 -2.70627 9407 ft 257 kts 37°
2026-05-07 23:06 42.91405 -2.69229 9155 ft 255 kts 37°
2026-05-07 23:07 42.92853 -2.67836 8902 ft 255 kts 37°
2026-05-07 23:07 42.94299 -2.66441 8650 ft 254 kts 37°
2026-05-07 23:07 42.95736 -2.65054 8392 ft 253 kts 37°
2026-05-07 23:07 42.97012 -2.63449 8103 ft 248 kts 62°
2026-05-07 23:08 42.97538 -2.61264 7882 ft 241 kts 84°
2026-05-07 23:08 42.97708 -2.58992 7621 ft 240 kts 88°
2026-05-07 23:08 42.97834 -2.56718 7374 ft 239 kts 88°
2026-05-07 23:08 42.97965 -2.54465 7128 ft 236 kts 87°
2026-05-07 23:09 42.98100 -2.52265 6959 ft 227 kts 87°
2026-05-07 23:09 42.98230 -2.50201 6848 ft 216 kts 87°
2026-05-07 23:09 42.98659 -2.48261 6659 ft 219 kts 53°
2026-05-07 23:09 42.99833 -2.46944 6531 ft 221 kts 37°
2026-05-07 23:10 43.01117 -2.45743 6286 ft 227 kts 28°
2026-05-07 23:10 43.02662 -2.45412 6030 ft 229 kts 349°
2026-05-07 23:10 43.04033 -2.46425 5805 ft 224 kts 313°
2026-05-07 23:10 43.04998 -2.48049 5582 ft 217 kts 305°
2026-05-07 23:11 43.05874 -2.49711 5356 ft 212 kts 304°
2026-05-07 23:11 43.06626 -2.51401 5136 ft 204 kts 285°
2026-05-07 23:11 43.06521 -2.53202 4971 ft 191 kts 236°
2026-05-07 23:11 43.05680 -2.54617 4913 ft 193 kts 224°
2026-05-07 23:12 43.04724 -2.55897 4797 ft 195 kts 220°
2026-05-07 23:12 43.03731 -2.57090 4687 ft 186 kts 216°
2026-05-07 23:12 43.02727 -2.58164 4564 ft 181 kts 214°
2026-05-07 23:12 43.01723 -2.59184 4509 ft 179 kts 215°
2026-05-07 23:13 43.00704 -2.60199 4446 ft 184 kts 215°
2026-05-07 23:13 42.99658 -2.61232 4189 ft 183 kts 215°
2026-05-07 23:13 42.98656 -2.62223 3961 ft 172 kts 215°
2026-05-07 23:13 42.97728 -2.63137 3740 ft 158 kts 216°
2026-05-07 23:14 42.96850 -2.64001 3525 ft 154 kts 213°
2026-05-07 23:14 42.95979 -2.64856 3317 ft 155 kts 211°
2026-05-07 23:14 42.95099 -2.65723 3110 ft 156 kts 213°
2026-05-07 23:14 42.94208 -2.66605 2890 ft 158 kts 216°
2026-05-07 23:15 42.93331 -2.67469 2685 ft 157 kts 216°
2026-05-07 23:15 42.92431 -2.68354 2477 ft 158 kts 215°
2026-05-07 23:15 42.91556 -2.69228 2250 ft 158 kts 216°
2026-05-07 23:15 42.90668 -2.70085 2032 ft 155 kts 215°
2026-05-07 23:16 42.89805 -2.70949 1811 ft 153 kts 216°
2026-05-07 23:16 42.88961 -2.71778 1682 ft 141 kts 216°
2026-05-07 23:16 42.88269 -2.72462 1676 ft 101 kts 216°
2026-05-07 23:16 42.87821 -2.72901 1681 ft 57 kts 216°
2026-05-07 23:17 42.87549 -2.73168 1679 ft 45 kts 216°
2026-05-07 23:17 42.87306 -2.73407 1679 ft 40 kts 216°
2026-05-07 23:17 42.87131 -2.73579 1672 ft 24 kts 216°
2026-05-07 23:17 42.87050 -2.73683 1673 ft 11 kts 252°
2026-05-07 23:18 42.87067 -2.73782 1675 ft 11 kts 305°
2026-05-07 23:18 42.87116 -2.73858 1687 ft 11 kts 334°
2026-05-07 23:18 42.87183 -2.73831 1676 ft 10 kts 34°
2026-05-07 23:18 42.87241 -2.73775 1679 ft 10 kts 36°
2026-05-07 23:19 42.87297 -2.73720 1684 ft 10 kts 36°
2026-05-07 23:19 42.87354 -2.73664 1676 ft 11 kts 36°
2026-05-07 23:19 42.87422 -2.73597 1680 ft 13 kts 36°
2026-05-07 23:19 42.87504 -2.73516 1676 ft 16 kts 36°
2026-05-07 23:20 42.87594 -2.73428 1684 ft 16 kts 36°
2026-05-07 23:20 42.87676 -2.73348 1678 ft 12 kts 36°
2026-05-07 23:20 42.87737 -2.73309 1682 ft 10 kts 356°
2026-05-07 23:20 42.87786 -2.73368 1680 ft 10 kts 303°
2026-05-07 23:21 42.87817 -2.73445 1676 ft 9 kts 273°
2026-05-07 23:21 42.87776 -2.73509 1681 ft 9 kts 214°
2026-05-07 23:21 42.87726 -2.73558 1678 ft 9 kts 222°
2026-05-07 23:21 42.87721 -2.73622 1682 ft 6 kts 302°
2026-05-07 23:22 42.87755 -2.73626 1683 ft 5 kts 23°
2026-05-07 23:22 42.87781 -2.73602 1684 ft 0 kts 35°